This is the latest recevied weather packets stored in our database for station/object EA5HRE-13. If no packets are shown the sender has not sent any weather packets the latest 10 day(s).
| Time | Temp. | Humidity | Pressure | Rain* | Wind** | Luminosity | Snow |
|---|---|---|---|---|---|---|---|
| 1787781216 | 26.67° C | 62% | 1010.4 hPa | 0 mm | - | - | - |
| 1787780316 | 26.67° C | 65% | 1010.7 hPa | 0 mm | - | - | - |
| 1787779415 | 26.67° C | 65% | 1010.8 hPa | 0 mm | - | - | - |
| 1787778515 | 26.67° C | 66% | 1010.9 hPa | 0 mm | - | - | - |
| 1787777206 | 26.67° C | 61% | 1010.8 hPa | 0 mm | - | - | - |
| 1787777021 | 26.67° C | 61% | 1010.8 hPa | 0 mm | - | - | - |
| 1787776631 | 26.67° C | 61% | 1004.5 hPa | 0 mm | - | - | - |
| 1787775868 | 26.67° C | 66% | 1010.6 hPa | 0 mm | - | - | - |
| 1787774968 | 26.67° C | 66% | 1010.5 hPa | 0 mm | - | - | - |
| 1787774068 | 26.67° C | 67% | 1010.4 hPa | 0 mm | - | - | - |
| 1787773167 | 26.67° C | 69% | 1010.2 hPa | 0 mm | - | - | - |
| 1787772267 | 26.11° C | 71% | 1010 hPa | 0 mm | - | - | - |
| 1787771366 | 26.11° C | 72% | 1009.9 hPa | 0 mm | - | - | - |
| 1787770466 | 26.67° C | 72% | 1009.8 hPa | 0 mm | - | - | - |
| 1787769566 | 26.67° C | 71% | 1009.8 hPa | 0 mm | - | - | - |
| 1787768665 | 26.67° C | 71% | 1009.8 hPa | 0 mm | - | - | - |
| 1787767764 | 26.67° C | 70% | 1009.8 hPa | 0 mm | - | - | - |
| 1787766706 | 26.67° C | 68% | 1009.9 hPa | 0 mm | - | - | - |
| 1787765809 | 26.67° C | 68% | 1009.9 hPa | 0 mm | - | - | - |
| 1787765137 | 26.67° C | 69% | 1009.8 hPa | 0 mm | - | - | - |
| 1787764236 | 26.67° C | 69% | 1009.7 hPa | 0 mm | - | - | - |
| 1787763335 | 27.22° C | 69% | 1009.7 hPa | 0 mm | - | - | - |
| 1787762435 | 27.22° C | 70% | 1009.7 hPa | 0 mm | - | - | - |
| 1787761535 | 27.22° C | 70% | 1009.8 hPa | 0 mm | - | - | - |
| 1787760635 | 27.22° C | 70% | 1009.8 hPa | 0 mm | - | - | - |
* Rain latest hour (hover to see other rain measurements)
** Current wind speed in m/s (hover to see current wind gust speed)